TimePST,TemperatureF,Dew PointF,Humidity,Sea Level PressureIn,VisibilityMPH,Wind Direction,Wind SpeedMPH,Gust SpeedMPH,PrecipitationIn,Events,Conditions,WindDirDegrees,DateUTC
12:53 AM,37.9,35.1,89,30.23,8.0,Calm,Calm,-,N/A,,Overcast,0,2012-12-30 08:53:00
1:42 AM,37.4,33.8,87,30.24,10.0,NNW,3.5,-,N/A,,Overcast,340,2012-12-30 09:42:00
1:53 AM,37.0,34.0,89,30.25,10.0,NNW,5.8,-,N/A,,Overcast,340,2012-12-30 09:53:00
2:09 AM,37.4,33.8,87,30.25,7.0,North,5.8,-,N/A,,Overcast,360,2012-12-30 10:09:00
2:53 AM,37.0,34.0,89,30.26,6.0,NNE,4.6,-,N/A,,Overcast,20,2012-12-30 10:53:00
3:37 AM,37.4,33.8,87,30.25,6.0,North,4.6,-,N/A,,Overcast,350,2012-12-30 11:37:00
3:45 AM,37.4,33.8,87,30.26,6.0,North,4.6,-,N/A,,Overcast,350,2012-12-30 11:45:00
3:53 AM,37.0,34.0,89,30.26,6.0,NNW,3.5,-,N/A,,Overcast,340,2012-12-30 11:53:00
4:53 AM,37.0,34.0,89,30.26,6.0,NNW,3.5,-,N/A,,Overcast,340,2012-12-30 12:53:00
5:53 AM,37.0,33.1,86,30.26,7.0,North,5.8,-,N/A,,Overcast,350,2012-12-30 13:53:00
6:41 AM,35.6,32.0,87,30.27,7.0,North,4.6,-,N/A,,Scattered Clouds,350,2012-12-30 14:41:00
6:53 AM,34.0,30.9,89,30.27,7.0,North,3.5,-,N/A,,Clear,350,2012-12-30 14:53:00
7:53 AM,33.1,30.0,89,30.28,5.0,NNW,4.6,-,N/A,,Clear,330,2012-12-30 15:53:00
8:53 AM,35.1,30.9,85,30.30,7.0,North,5.8,-,N/A,,Clear,360,2012-12-30 16:53:00
9:53 AM,37.9,32.0,79,30.32,10.0,North,8.1,-,N/A,,Clear,350,2012-12-30 17:53:00
10:53 AM,39.9,32.0,73,30.32,10.0,NNW,5.8,-,N/A,,Partly Cloudy,340,2012-12-30 18:53:00
11:53 AM,41.0,32.0,70,30.30,10.0,Calm,Calm,-,N/A,,Partly Cloudy,0,2012-12-30 19:53:00
12:53 PM,43.0,32.0,65,30.29,10.0,Calm,Calm,-,N/A,,Scattered Clouds,0,2012-12-30 20:53:00
1:53 PM,43.0,30.9,62,30.29,10.0,Calm,Calm,-,N/A,,Clear,0,2012-12-30 21:53:00
2:53 PM,43.0,32.0,65,30.28,10.0,SE,3.5,-,N/A,,Clear,140,2012-12-30 22:53:00
3:53 PM,42.1,30.9,65,30.29,10.0,Calm,Calm,-,N/A,,Clear,0,2012-12-30 23:53:00
4:53 PM,39.0,32.0,76,30.28,10.0,Calm,Calm,-,N/A,,Clear,0,2012-12-31 00:53:00
5:53 PM,34.0,30.0,85,30.27,10.0,Calm,Calm,-,N/A,,Clear,0,2012-12-31 01:53:00
6:53 PM,35.1,30.0,82,30.28,10.0,North,3.5,-,N/A,,Clear,350,2012-12-31 02:53:00
7:53 PM,30.9,27.0,85,30.27,10.0,NNW,4.6,-,N/A,,Clear,340,2012-12-31 03:53:00
8:53 PM,30.0,27.0,88,30.28,10.0,NNW,3.5,-,N/A,,Clear,330,2012-12-31 04:53:00
9:53 PM,30.0,27.0,88,30.28,10.0,NNE,4.6,-,N/A,,Clear,30,2012-12-31 05:53:00
10:53 PM,28.0,25.0,88,30.31,10.0,East,3.5,-,N/A,,Clear,100,2012-12-31 06:53:00
11:53 PM,28.0,25.0,88,30.31,10.0,Calm,Calm,-,N/A,,Clear,0,2012-12-31 07:53:00